Stündliche Wetter Bolshie Lezhni

Heute, 29 Juli, Donnerstag

Zeit Temperatur Niederschläge Wind Luftdruck Luftfeuchtigkeit
00:00 +20°C° 0 mm 1 m/S 744 mmHg 82%
01:00 +20°C° 0 mm 1 m/S 744 mmHg 83%
02:00 +20°C° 0 mm 1 m/S 744 mmHg 85%
03:00 +20°C° 0 mm 1 m/S 744 mmHg 86%
04:00 +19°C° 0 mm 1 m/S 744 mmHg 87%
05:00 +19°C° 0 mm 1 m/S 744 mmHg 88%
06:00 +21°C° 0 mm 1 m/S 744 mmHg 80%
07:00 +23°C° 0 mm 2 m/S 744 mmHg 73%
08:00 +25°C° 0 mm 2 m/S 744 mmHg 64%
09:00 +27°C° 0 mm 2 m/S 744 mmHg 56%
10:00 +28°C° 0 mm 2 m/S 743 mmHg 48%
11:00 +30°C° 0 mm 2 m/S 743 mmHg 40%
12:00 +30°C° 0 mm 1 m/S 743 mmHg 40%
13:00 +30°C° 0 mm 1 m/S 742 mmHg 40%
14:00 +30°C° 0 mm 2 m/S 742 mmHg 40%
15:00 +27°C° 1.8 mm 2 m/S 742 mmHg 56%
16:00 +24°C° 1.8 mm 3 m/S 742 mmHg 73%
17:00 +20°C° 1.8 mm 3 m/S 742 mmHg 90%
18:00 +20°C° 1 mm 3 m/S 742 mmHg 92%
19:00 +20°C° 1 mm 2 m/S 742 mmHg 94%
20:00 +20°C° 1 mm 1 m/S 742 mmHg 96%
21:00 +20°C° 0 mm 1 m/S 742 mmHg 97%
22:00 +18°C° 0 mm 2 m/S 742 mmHg 97%
23:00 +18°C° 0 mm 2 m/S 742 mmHg 97%

Morgen, 30 Juli, Freitag

Zeit Temperatur Niederschläge Wind Luftdruck Luftfeuchtigkeit
00:00 +18°C° 0 mm 2 m/S 742 mmHg 97%
01:00 +17°C° 0 mm 2 m/S 742 mmHg 96%
02:00 +17°C° 0 mm 2 m/S 742 mmHg 96%
03:00 +17°C° 0 mm 2 m/S 742 mmHg 96%
04:00 +16°C° 0 mm 2 m/S 742 mmHg 95%
05:00 +16°C° 0 mm 2 m/S 742 mmHg 94%
06:00 +18°C° 0 mm 3 m/S 742 mmHg 88%
07:00 +19°C° 0 mm 3 m/S 742 mmHg 81%
08:00 +21°C° 0 mm 4 m/S 742 mmHg 74%
09:00 +22°C° 0 mm 4 m/S 742 mmHg 66%
10:00 +23°C° 0 mm 5 m/S 742 mmHg 57%
11:00 +26°C° 0 mm 5 m/S 742 mmHg 49%
12:00 +26°C° 0.1 mm 5 m/S 742 mmHg 46%
13:00 +26°C° 0.1 mm 5 m/S 742 mmHg 42%
14:00 +26°C° 0.1 mm 6 m/S 742 mmHg 39%
15:00 +26°C° 0 mm 6 m/S 742 mmHg 38%
16:00 +26°C° 0 mm 6 m/S 741 mmHg 37%
17:00 +26°C° 0 mm 6 m/S 741 mmHg 36%
18:00 +25°C° 0 mm 5 m/S 741 mmHg 41%
19:00 +23°C° 0 mm 5 m/S 741 mmHg 45%
20:00 +21°C° 0 mm 4 m/S 741 mmHg 50%
21:00 +20°C° 0 mm 4 m/S 741 mmHg 56%
22:00 +19°C° 0 mm 4 m/S 741 mmHg 62%
23:00 +18°C° 0 mm 4 m/S 741 mmHg 69%

übermorgen, 31 Juli, Samstag

Zeit Temperatur Niederschläge Wind Luftdruck Luftfeuchtigkeit
00:00 +17°C° 0 mm 4 m/S 741 mmHg 71%
01:00 +17°C° 0 mm 4 m/S 741 mmHg 72%
02:00 +15°C° 0 mm 4 m/S 741 mmHg 74%
03:00 +15°C° 0 mm 4 m/S 741 mmHg 74%
04:00 +15°C° 0 mm 4 m/S 741 mmHg 75%
05:00 +15°C° 0 mm 4 m/S 741 mmHg 75%
06:00 +17°C° 0 mm 5 m/S 741 mmHg 68%
07:00 +19°C° 0 mm 6 m/S 741 mmHg 61%
08:00 +21°C° 0 mm 7 m/S 741 mmHg 54%
09:00 +23°C° 0 mm 7 m/S 741 mmHg 51%
10:00 +24°C° 0 mm 7 m/S 742 mmHg 48%
11:00 +26°C° 0 mm 7 m/S 742 mmHg 45%
12:00 +26°C° 0 mm 7 m/S 742 mmHg 44%
13:00 +27°C° 0 mm 6 m/S 742 mmHg 42%
14:00 +27°C° 0 mm 6 m/S 742 mmHg 41%
15:00 +27°C° 0 mm 6 m/S 742 mmHg 41%
16:00 +27°C° 0 mm 5 m/S 742 mmHg 41%
17:00 +27°C° 0 mm 5 m/S 742 mmHg 41%
18:00 +25°C° 0 mm 4 m/S 743 mmHg 48%
19:00 +22°C° 0 mm 3 m/S 743 mmHg 54%
20:00 +21°C° 0 mm 2 m/S 743 mmHg 61%
21:00 +20°C° 0 mm 2 m/S 743 mmHg 63%
22:00 +19°C° 0 mm 2 m/S 743 mmHg 65%
23:00 +19°C° 0 mm 2 m/S 743 mmHg 67%

1 August, Sonntag

Zeit Temperatur Niederschläge Wind Luftdruck Luftfeuchtigkeit
00:00 +19°C° 0 mm 2 m/S 743 mmHg 69%
01:00 +19°C° 0 mm 2 m/S 743 mmHg 71%
02:00 +19°C° 0 mm 2 m/S 743 mmHg 73%
03:00 +18°C° 0.1 mm 2 m/S 743 mmHg 78%
04:00 +18°C° 0.1 mm 2 m/S 743 mmHg 83%
05:00 +17°C° 0.1 mm 3 m/S 743 mmHg 89%
06:00 +18°C° 0.2 mm 3 m/S 743 mmHg 89%
07:00 +18°C° 0.2 mm 2 m/S 743 mmHg 89%
08:00 +19°C° 0.2 mm 2 m/S 743 mmHg 89%
09:00 +20°C° 0 mm 3 m/S 743 mmHg 82%
10:00 +22°C° 0 mm 3 m/S 743 mmHg 74%
11:00 +25°C° 0 mm 3 m/S 743 mmHg 66%
12:00 +26°C° 0 mm 4 m/S 743 mmHg 56%
13:00 +28°C° 0 mm 4 m/S 742 mmHg 45%
14:00 +30°C° 0 mm 5 m/S 742 mmHg 34%
15:00 +29°C° 0 mm 5 m/S 742 mmHg 35%
16:00 +29°C° 0 mm 5 m/S 742 mmHg 35%
17:00 +28°C° 0 mm 5 m/S 743 mmHg 36%
18:00 +26°C° 0 mm 4 m/S 743 mmHg 44%
19:00 +24°C° 0 mm 3 m/S 743 mmHg 52%
20:00 +21°C° 0 mm 2 m/S 743 mmHg 60%
21:00 +20°C° 0 mm 2 m/S 743 mmHg 64%
22:00 +19°C° 0 mm 2 m/S 743 mmHg 68%
23:00 +19°C° 0 mm 1 m/S 743 mmHg 71%

2 August, Montag

Zeit Temperatur Niederschläge Wind Luftdruck Luftfeuchtigkeit
00:00 +19°C° 0 mm 1 m/S 743 mmHg 74%
01:00 +18°C° 0 mm 1 m/S 743 mmHg 77%
02:00 +16°C° 0 mm 0 m/S 743 mmHg 80%
03:00 +18°C° 0 mm 1 m/S 743 mmHg 79%
04:00 +18°C° 0 mm 1 m/S 742 mmHg 79%
05:00 +17°C° 0 mm 2 m/S 742 mmHg 79%
06:00 +17°C° 2.3 mm 2 m/S 742 mmHg 85%
07:00 +16°C° 2.3 mm 2 m/S 741 mmHg 91%
08:00 +16°C° 2.3 mm 2 m/S 741 mmHg 97%
09:00 +17°C° 1.6 mm 2 m/S 740 mmHg 96%
10:00 +18°C° 1.6 mm 3 m/S 740 mmHg 95%
11:00 +19°C° 1.6 mm 4 m/S 739 mmHg 93%
12:00 +20°C° 0.1 mm 4 m/S 739 mmHg 88%
13:00 +21°C° 0.1 mm 4 m/S 739 mmHg 82%
14:00 +22°C° 0.1 mm 4 m/S 739 mmHg 76%
15:00 +21°C° 0.1 mm 4 m/S 739 mmHg 79%
16:00 +20°C° 0.1 mm 4 m/S 739 mmHg 81%
17:00 +19°C° 0.1 mm 4 m/S 739 mmHg 84%
18:00 +16°C° 0.2 mm 5 m/S 740 mmHg 86%
19:00 +15°C° 0.2 mm 5 m/S 740 mmHg 89%
20:00 +14°C° 0.2 mm 6 m/S 741 mmHg 91%
21:00 +13°C° 0 mm 5 m/S 742 mmHg 91%
22:00 +13°C° 0 mm 4 m/S 742 mmHg 92%
23:00 +13°C° 0 mm 4 m/S 743 mmHg 92%

3 August, Dienstag

Zeit Temperatur Niederschläge Wind Luftdruck Luftfeuchtigkeit
00:00 +13°C° 0 mm 3 m/S 743 mmHg 93%
01:00 +13°C° 0 mm 3 m/S 743 mmHg 93%
02:00 +13°C° 0 mm 3 m/S 743 mmHg 93%
03:00 +12°C° 0 mm 3 m/S 743 mmHg 94%
04:00 +12°C° 0 mm 3 m/S 743 mmHg 95%
05:00 +12°C° 0 mm 3 m/S 743 mmHg 96%
06:00 +13°C° 0 mm 3 m/S 744 mmHg 89%
07:00 +15°C° 0 mm 4 m/S 744 mmHg 82%
08:00 +18°C° 0 mm 4 m/S 744 mmHg 75%
09:00 +19°C° 0 mm 5 m/S 744 mmHg 65%
10:00 +21°C° 0 mm 5 m/S 744 mmHg 55%
11:00 +22°C° 0 mm 6 m/S 744 mmHg 45%
12:00 +22°C° 0 mm 6 m/S 744 mmHg 47%
13:00 +22°C° 0 mm 5 m/S 744 mmHg 49%
14:00 +21°C° 0 mm 5 m/S 744 mmHg 51%
15:00 +21°C° 0.3 mm 5 m/S 745 mmHg 58%
16:00 +20°C° 0.3 mm 5 m/S 745 mmHg 64%
17:00 +20°C° 0.3 mm 5 m/S 745 mmHg 71%
18:00 +19°C° 0.1 mm 4 m/S 745 mmHg 76%
19:00 +17°C° 0.1 mm 3 m/S 746 mmHg 82%
20:00 +16°C° 0.1 mm 3 m/S 746 mmHg 87%
21:00 +14°C° 0 mm 3 m/S 746 mmHg 90%
22:00 +15°C° 0 mm 2 m/S 747 mmHg 92%
23:00 +14°C° 0 mm 2 m/S 747 mmHg 95%
Mehr zeigen

Wir brauchen deine Erlaubnis

Meteoprog und unser Service Anbieter werden persönliche Daten aufbewahren, so wie Cookies, Geräte Bezeichnung oder ähnliche Technologien von deinem Gerät und Prozess, so wie Persönliche Daten Inhalte und Werbungen, genauso wie social Media und den Verkehr zu analysieren.

  • Aufbewahrung und/oder Zugang zu deiner Geräte Informationen.

    Cookies, Geräte Bezeichnung oder andere Informationen, können aufbewahrt oder Zugang zu deinem Gerät erhalten, für den Grund, der oben angegeben wird.

  • Personalisierte Werbung und Inhalte, Messungen, Einblick in das Publikum und Produkt Entwicklung.

    Werbungen und Inhalte können personalisiert werden, basierend auf ein Profil. Mehr Daten können besser personalisierte Werbungen und Inhalte hinzufügen. Werbung und Inhalte können gezeigt und gemessen werden. Einblicke über das Publikum, welche die Werbung gesehen haben und den Inhalt, können abgeleitet werden. So wie Daten können genutzt werden, um es zu verbessern oder die Benutzer Erfahrung zu verbessern das System und die Software.

Wenn du “Ich stimme zu” klickst, erlaubst du uns, die Cookies zu benutzen die Geräte Bezeichnung, den Web oder ähnliche Technologien zu benutzen. Deine Settings, können in deinem Gerät bei deinem Browser geändert werden.

Für den bestimmten Zweck, berechtigten Interessen beruhen darauf, mehr als auf den Inhalt. Du kannst mehr darüber in unseren Privaten und Cookie Politik lesen.